Regional Weather Roundup
Issued by NWS

Home | Current Version | Previous Version | Graphics & Text | Print | Product List | Glossary On
Versions: 1 2 3 4 5 6 7 8 9 10 11 12 13 14 15 16 17 18 19 20 21 22 23 24 25 26 27 28 29 30 31 32 33 34 35 36 37 38 39 40 41 42 43 44 45 46 47 48 49 50
822
ASUS43 KBIS 101910
RWRND

NORTH DAKOTA REGIONAL WEATHER ROUNDUP
NATIONAL WEATHER SERVICE BISMARCK ND
100 PM CST WED FEB 10 2016

NOTE: "FAIR" INDICATES FEW OR NO CLOUDS BELOW 12,000 FEET WITH NO
SIGNIFICANT WEATHER AND/OR OBSTRUCTIONS TO VISIBILITY.


NDZ001>003-009>011-017-102000-
NORTHWEST NORTH DAKOTA

CITY           SKY/WX    TMP DP  RH WIND       PRES   REMARKS
WILLISTON      CLOUDY    32  26  78 N10       30.04R
MINOT          CLOUDY    18   8  65 N8        30.04R WCI   8
MINOT AFB      FRZ DRZL  16   9  73 NE8       30.05R WCI   5
$$

NDZ018>021-031>035-040>046-102000-
SOUTHWEST NORTH DAKOTA

CITY           SKY/WX    TMP DP  RH WIND       PRES   REMARKS
BISMARCK       CLOUDY    25  15  66 NE9       29.99R WCI  15
DICKINSON      CLOUDY    38  29  70 N17       29.93R
GARRISON         N/A     22  15  75 N7        29.99R WCI  13
HETTINGER ARPT SUNNY     48  30  49 N18G30    29.94R
$$

NDZ004>008-012>016-024-026-027-054-102000-
NORTHEAST NORTH DAKOTA

CITY           SKY/WX    TMP DP  RH WIND       PRES   REMARKS
GRAND FORKS    CLOUDY     9  -1  64 E8        30.16F WCI  -3
DEVILS LAKE    FLURRIES   7   1  76 E15       30.09R WCI -10
$$

NDZ022-023-025-028>030-036>039-047>053-102000-
SOUTHEAST NORTH DAKOTA

CITY           SKY/WX    TMP DP  RH WIND       PRES   REMARKS
FARGO          CLOUDY    13   3  64 CALM      30.12S
JAMESTOWN      CLOUDY     9   4  80 E13       30.03R WCI  -7
$$





USA.gov is the U.S. government's official web portal to all federal, state and local government web resources and services.